Weather History for KSMQ - November, 2013

Change the Weather History Date:

Thursday, November 14, 2013

  Actual Average Record
Temperature  
Mean Temperature 38 °F -  
Max Temperature 54 °F 49 °F 72 °F (1955)
Min Temperature 21 °F 32 °F 14 °F (1986)
Degree Days  
Heating Degree Days 28    
Moisture  
Dew Point 16 °F    
Average Humidity 50    
Maximum Humidity 88    
Minimum Humidity 17    
Precipitation  
Precipitation 0.00 in - - ()
Sea Level Pressure  
Sea Level Pressure 30.22 in    
Wind  
Wind Speed 4 mph (SSW)    
Max Wind Speed 9 mph    
Max Gust Speed -    
Visibility 10 miles    
Events      
Averages and records for this station are not official NWS values.
T = Trace of Precipitation, MM = Missing Value Source: NWS Daily Summary

Daily Weather History Graph

Daily Weather History Graph

Search for Another Location

Airport or City:

Trip Planner

Search our weather history database for the weather conditions in past years. The results will help you decide how hot, cold, wet, or windy it might be!

Date:

Astronomy

Nov. 14, 2013 Rise Set
Actual Time 6:44 AM EST 4:41 PM EST
Civil Twilight 6:15 AM EST 5:10 PM EST
Nautical Twilight 5:42 AM EST 5:43 PM EST
Astronomical Twilight 5:09 AM EST 6:16 PM EST
Moon 3:02 PM EST (11/14) 3:36 AM EST (11/14)
Length of Visible Light 10h 55m
Length of Day
9h 57m
Waxing Gibbous, 91% of the Moon is Illuminated
Nov 14
Waxing Gibbous
Nov 17
Full
Nov 25
Last Quarter
Dec 2
New
Dec 9
First Quarter

Hourly Weather History & Observations

Time (EST) Temp. Windchill Dew Point Humidity Pressure Visibility Wind Dir Wind Speed Gust Speed Precip Events Conditions
12:53 AM 21.9 °F - 18.0 °F 85% 30.27 in 10.0 mi Calm Calm - N/A   Clear
1:53 AM 21.0 °F 14.6 °F 18.0 °F 88% 30.26 in 10.0 mi South 4.6 mph - N/A   Clear
2:53 AM 23.0 °F 17.0 °F 18.0 °F 81% 30.25 in 10.0 mi South 4.6 mph - N/A   Clear
3:53 AM 28.9 °F 23.9 °F 19.0 °F 67% 30.25 in 10.0 mi SSW 4.6 mph - N/A   Clear
4:53 AM 28.0 °F 24.2 °F 19.0 °F 69% 30.24 in 10.0 mi South 3.5 mph - N/A   Clear
5:53 AM 28.0 °F 21.7 °F 18.0 °F 66% 30.25 in 10.0 mi South 5.8 mph - N/A   Clear
6:53 AM 28.0 °F 22.8 °F 18.0 °F 66% 30.26 in 10.0 mi South 4.6 mph - N/A   Clear
7:53 AM 30.9 °F 25.2 °F 19.9 °F 64% 30.27 in 10.0 mi SSW 5.8 mph - N/A   Clear
8:53 AM 37.0 °F 32.4 °F 19.9 °F 50% 30.27 in 10.0 mi Variable 5.8 mph - N/A   Clear
9:53 AM 42.1 °F 37.1 °F 18.0 °F 38% 30.27 in 10.0 mi West 8.1 mph - N/A   Clear
10:53 AM 46.9 °F - 15.1 °F 28% 30.25 in 10.0 mi Variable 5.8 mph - N/A   Clear
11:53 AM 48.9 °F - 12.0 °F 23% 30.22 in 10.0 mi WSW 9.2 mph - N/A   Clear
12:53 PM 51.1 °F - 10.9 °F 20% 30.20 in 10.0 mi SW 9.2 mph - N/A   Clear
1:53 PM 53.1 °F - 10.9 °F 19% 30.18 in 10.0 mi West 8.1 mph - N/A   Clear
2:53 PM 54.0 °F - 10.0 °F 17% 30.17 in 10.0 mi WNW 8.1 mph - N/A   Clear
3:53 PM 52.0 °F - 10.9 °F 19% 30.18 in 10.0 mi Variable 5.8 mph - N/A   Clear
4:53 PM 48.0 °F - 12.0 °F 24% 30.18 in 10.0 mi Variable 4.6 mph - N/A   Clear
5:53 PM 42.1 °F - 14.0 °F 32% 30.20 in 10.0 mi Calm Calm - N/A   Clear
6:53 PM 37.0 °F 34.5 °F 17.1 °F 44% 30.20 in 10.0 mi South 3.5 mph - N/A   Clear
7:53 PM 35.1 °F - 18.0 °F 50% 30.20 in 10.0 mi Calm Calm - N/A   Clear
8:53 PM 30.0 °F - 18.0 °F 61% 30.20 in 10.0 mi Calm Calm - N/A   Clear
9:53 PM 28.9 °F 25.2 °F 18.0 °F 64% 30.21 in 10.0 mi SSE 3.5 mph - N/A   Clear
10:53 PM 30.0 °F - 18.0 °F 61% 30.21 in 10.0 mi Calm Calm - N/A   Clear
11:53 PM 27.0 °F 23.0 °F 19.0 °F 72% 30.20 in 10.0 mi NNW 3.5 mph - N/A   Clear